User: anonymous
Location: Brno
(49.2000°N, 16.6330°E)
Time: 17:55:36
(UTC+02:00)
Language:

Cosmos 332 Rocket - Orbit

View from above orbital plane
View from above orbital plane
View from above satellite
View from above satellite

Ground track
Ground track

The orbit data is extracted from the following two-line orbital elements,

1 04370U 70028B   14212.78423037  .00000186  00000-0  45755-4 0  7000
2 04370 074.0410 293.7775 0014544 120.1886 014.5469 14.59131542858584
Epoch (UTC): 31 July 2014 18:49:17
Eccentricity: 0.0014544
inclination: 74.0410°
perigee height: 685 km
apogee height: 706 km
right ascension of ascending node: 293.7775°
argument of perigee: 120.1886°
revolutions per day: 14.59131542
mean anomaly at epoch: 14.5469°
orbit number at epoch: 85858

The dashed part of the orbit path shows where the satellite is in the earth's shadow,  

DLR